Weather History for Wisconsin Rapids, WI

Change the Weather History Date:

Thursday, February 7, 2013

  Actual Average Record
Temperature  
Mean Temperature 26 °F -  
Max Temperature 27 °F 26 °F 51 °F (1987)
Min Temperature 23 °F 2 °F -26 °F (1962)
Degree Days  
Heating Degree Days 40    
Moisture  
Dew Point 23 °F    
Average Humidity 88    
Maximum Humidity 100    
Minimum Humidity 80    
Precipitation  
Precipitation 0.08 in - - ()
Sea Level Pressure  
Sea Level Pressure 30.05 in    
Wind  
Wind Speed 7 mph (NE)    
Max Wind Speed 15 mph    
Max Gust Speed 20 mph    
Visibility 2 miles    
Events Fog , Snow    
Averages and records for this station are not official NWS values.
T = Trace of Precipitation, MM = Missing Value Source: NWS Daily Summary

Daily Weather History Graph

Daily Weather History Graph

Search for Another Location

Airport:

Trip Planner

Search our weather history database for the weather conditions in past years. The results will help you decide how hot, cold, wet, or windy it might be!

Date:

Astronomy

Feb. 07, 2013 Rise Set
Actual Time 7:09 AM CST 5:17 PM CST
Civil Twilight 6:39 AM CST 5:48 PM CST
Nautical Twilight 6:05 AM CST 6:22 PM CST
Astronomical Twilight 5:31 AM CST 6:56 PM CST
Moon 4:53 AM CST (2/7) 2:39 PM CST (2/7)
Length of Visible Light 11h 08m
Length of Day
10h 07m
Waning Crescent, 9% of the Moon is Illuminated
Feb 7
Waning Crescent
Feb 10
New
Feb 17
First Quarter
Feb 25
Full
Mar 4
Last Quarter

Hourly Weather History & Observations

Time (CST) Temp. Windchill Dew Point Humidity Pressure Visibility Wind Dir Wind Speed Gust Speed Precip Events Conditions
12:54 AM 24.1 °F 18.2 °F 21.0 °F 88% 30.09 in 4.0 mi East 4.6 mph - N/A   Overcast
1:09 AM 24.8 °F 19.1 °F 21.2 °F 86% 30.04 in 4.0 mi East 4.6 mph - N/A   Overcast
1:54 AM 25.0 °F 19.3 °F 21.9 °F 88% 30.09 in 4.0 mi East 4.6 mph - N/A   Overcast
2:52 AM 24.8 °F 19.1 °F 21.2 °F 86% 30.03 in 4.0 mi East 4.6 mph - N/A   Overcast
2:54 AM 25.0 °F 19.3 °F 21.9 °F 88% 30.08 in 4.0 mi East 4.6 mph - N/A   Overcast
3:54 AM 26.1 °F 19.4 °F 23.0 °F 88% 30.07 in 3.0 mi ENE 5.8 mph - N/A   Overcast
4:54 AM 26.1 °F 19.4 °F 23.0 °F 88% 30.06 in 3.0 mi ENE 5.8 mph - N/A   Overcast
5:36 AM 26.6 °F 20.0 °F 23.0 °F 86% 30.01 in 2.5 mi East 5.8 mph - N/A   Overcast
5:54 AM 26.1 °F 18.4 °F 23.0 °F 88% 30.05 in 2.5 mi East 6.9 mph - N/A   Overcast
6:54 AM 26.1 °F 20.5 °F 24.1 °F 92% 30.06 in 2.5 mi ENE 4.6 mph - N/A   Overcast
7:35 AM 26.6 °F 19.1 °F 24.8 °F 93% 30.02 in 1.2 mi ENE 6.9 mph - N/A   Overcast
7:44 AM 26.6 °F 19.1 °F 24.8 °F 93% 30.02 in 1.0 mi ENE 6.9 mph - N/A   Overcast
7:54 AM 27.0 °F 19.5 °F 24.1 °F 89% 30.07 in 1.0 mi ENE 6.9 mph - N/A   Overcast
8:02 AM 26.6 °F 18.2 °F 24.8 °F 93% 30.02 in 0.8 mi ENE 8.1 mph - N/A   Overcast
8:16 AM 26.6 °F 18.2 °F 24.8 °F 93% 30.02 in 0.5 mi East 8.1 mph - N/A Fog Light Freezing Fog
8:54 AM 27.0 °F 19.5 °F 26.1 °F 96% 30.08 in 0.5 mi ENE 6.9 mph - N/A Fog Light Freezing Fog
9:20 AM 26.6 °F 16.2 °F 26.6 °F 100% 30.03 in 1.0 mi NE 11.5 mph - N/A   Overcast
9:31 AM 26.6 °F 17.5 °F 24.8 °F 93% 30.04 in 1.5 mi NE 9.2 mph - N/A   Overcast
9:39 AM 26.6 °F 16.2 °F 24.8 °F 93% 30.04 in 2.0 mi ENE 11.5 mph - N/A   Overcast
9:54 AM 26.1 °F 18.4 °F 24.1 °F 92% 30.08 in 2.0 mi ENE 6.9 mph - N/A   Overcast
10:31 AM 26.6 °F 17.5 °F 23.0 °F 86% 30.04 in 1.5 mi ENE 9.2 mph - N/A   Overcast
10:54 AM 26.1 °F 20.5 °F 24.1 °F 92% 30.09 in 1.5 mi NE 4.6 mph - N/A   Overcast
11:24 AM 26.6 °F 18.2 °F 23.0 °F 86% 30.04 in 2.0 mi NE 8.1 mph - N/A   Overcast
11:54 AM 26.1 °F 16.8 °F 23.0 °F 88% 30.08 in 2.0 mi NE 9.2 mph - N/A   Overcast
12:45 PM 26.6 °F 17.5 °F 23.0 °F 86% 30.01 in 3.0 mi NE 9.2 mph - N/A   Overcast
12:54 PM 26.1 °F 18.4 °F 23.0 °F 88% 30.06 in 3.0 mi NE 6.9 mph - N/A   Overcast
1:06 PM 26.6 °F 20.0 °F 24.8 °F 93% 30.00 in 2.5 mi NE 5.8 mph - 0.00 in Snow Light Snow
1:16 PM 26.6 °F 18.2 °F 24.8 °F 93% 30.00 in 2.0 mi NE 8.1 mph - 0.00 in Snow Light Snow
1:23 PM 26.6 °F 19.1 °F 24.8 °F 93% 29.99 in 1.2 mi NE 6.9 mph - 0.01 in Snow Light Snow
1:30 PM 26.6 °F 19.1 °F 24.8 °F 93% 29.99 in 0.8 mi NE 6.9 mph - 0.01 in Snow Light Snow
1:41 PM 26.6 °F 19.1 °F 24.8 °F 93% 29.98 in 0.5 mi NE 6.9 mph - 0.02 in Fog , Snow Snow
1:54 PM 27.0 °F 19.5 °F 24.1 °F 89% 30.03 in 0.5 mi NE 6.9 mph - 0.03 in Fog , Snow Snow
2:11 PM 26.6 °F 19.1 °F 24.8 °F 93% 29.98 in 1.0 mi NNE 6.9 mph - 0.00 in Snow Light Snow
2:14 PM 26.6 °F 18.2 °F 24.8 °F 93% 29.98 in 0.8 mi NNE 8.1 mph - 0.00 in Snow Light Snow
2:35 PM 26.6 °F 18.2 °F 24.8 °F 93% 29.98 in 1.0 mi NNE 8.1 mph - 0.01 in Snow Light Snow
2:42 PM 26.6 °F 18.2 °F 24.8 °F 93% 29.99 in 2.0 mi NNE 8.1 mph - 0.01 in Snow Light Snow
2:52 PM 26.6 °F 16.8 °F 24.8 °F 93% 29.99 in 3.0 mi NNE 10.4 mph - 0.01 in Snow Light Snow
2:54 PM 27.0 °F 18.0 °F 24.1 °F 89% 30.04 in 3.0 mi NNE 9.2 mph - 0.01 in Snow Light Snow
2:58 PM 26.6 °F 17.5 °F 24.8 °F 93% 29.99 in 1.8 mi NNE 9.2 mph - 0.00 in Snow Light Snow
3:23 PM 26.6 °F 17.5 °F 24.8 °F 93% 29.99 in 1.0 mi NNE 9.2 mph - 0.00 in Snow Light Snow
3:43 PM 26.6 °F 16.8 °F 24.8 °F 93% 29.99 in 1.0 mi NNE 10.4 mph - 0.01 in Snow Light Snow
3:54 PM 27.0 °F 19.5 °F 24.1 °F 89% 30.04 in 1.0 mi NNE 6.9 mph - 0.01 in Snow Light Snow
3:57 PM 26.6 °F 19.1 °F 24.8 °F 93% 29.99 in 1.2 mi NNE 6.9 mph - 0.00 in Snow Light Snow
4:24 PM 26.6 °F 16.8 °F 24.8 °F 93% 30.00 in 1.2 mi NNE 10.4 mph - 0.00 in Snow Light Snow
4:28 PM 26.6 °F 16.2 °F 24.8 °F 93% 30.00 in 1.0 mi NNE 11.5 mph - 0.00 in Snow Light Snow
4:33 PM 26.6 °F 17.5 °F 24.8 °F 93% 30.00 in 0.8 mi NNE 9.2 mph - 0.00 in Snow Light Snow
4:47 PM 26.6 °F 16.2 °F 23.0 °F 86% 30.00 in 0.8 mi NNE 11.5 mph - 0.00 in Snow Light Snow
4:54 PM 27.0 °F 17.3 °F 23.0 °F 85% 30.06 in 0.8 mi NNE 10.4 mph - 0.00 in Snow Light Snow
5:18 PM 26.6 °F 15.2 °F 23.0 °F 86% 30.02 in 1.2 mi NNE 13.8 mph - 0.01 in Snow Light Snow
5:46 PM 26.6 °F 17.5 °F 23.0 °F 86% 30.03 in 1.5 mi NNE 9.2 mph - 0.01 in Snow Light Snow
5:54 PM 26.1 °F 16.2 °F 23.0 °F 88% 30.08 in 1.5 mi NNE 10.4 mph - 0.01 in Snow Light Snow
6:07 PM 26.6 °F 15.7 °F 21.2 °F 80% 30.04 in 1.5 mi NNE 12.7 mph - 0.00 in Snow Light Snow
6:49 PM 26.6 °F 17.5 °F 21.2 °F 80% 30.06 in 2.0 mi NNE 9.2 mph - 0.00 in Snow Light Snow
6:54 PM 26.1 °F 16.2 °F 21.9 °F 84% 30.11 in 2.5 mi NNE 10.4 mph - 0.00 in Snow Light Snow
7:07 PM 26.6 °F 16.8 °F 21.2 °F 80% 30.07 in 2.5 mi NNE 10.4 mph - 0.00 in Snow Light Snow
7:18 PM 26.6 °F 17.5 °F 21.2 °F 80% 30.07 in 1.8 mi NNE 9.2 mph - 0.00 in Snow Light Snow
7:37 PM 26.6 °F 17.5 °F 21.2 °F 80% 30.07 in 1.0 mi NNE 9.2 mph - 0.01 in Snow Light Snow
7:46 PM 26.6 °F 18.2 °F 21.2 °F 80% 30.07 in 1.5 mi NNE 8.1 mph - 0.01 in Snow Light Snow
7:54 PM 26.1 °F 16.8 °F 21.9 °F 84% 30.12 in 2.5 mi NNE 9.2 mph - 0.01 in Snow Light Snow
8:27 PM 26.6 °F 17.5 °F 21.2 °F 80% 30.09 in 2.0 mi NNE 9.2 mph - 0.01 in Snow Light Snow
8:44 PM 26.6 °F 17.5 °F 21.2 °F 80% 30.10 in 2.0 mi NE 9.2 mph 18.4 mph 0.01 in Snow Light Snow
8:51 PM 24.8 °F 12.4 °F 21.2 °F 86% 30.11 in 3.0 mi NE 15.0 mph 19.6 mph 0.01 in Snow Light Snow
8:54 PM 25.0 °F 13.6 °F 19.9 °F 81% 30.16 in 4.0 mi NNE 12.7 mph - 0.01 in Snow Light Snow
9:29 PM 24.8 °F 14.0 °F 21.2 °F 86% 30.11 in 7.0 mi NNE 11.5 mph 16.1 mph 0.00 in Snow Light Snow
9:54 PM 25.0 °F 14.2 °F 19.9 °F 81% 30.17 in 9.0 mi NE 11.5 mph - 0.00 in   Overcast
10:49 PM 24.8 °F 15.3 °F 19.4 °F 80% 30.14 in 10.0 mi NE 9.2 mph - 0.00 in   Overcast
10:54 PM 24.1 °F 13.7 °F 19.0 °F 81% 30.19 in 10.0 mi NNE 10.4 mph - 0.00 in   Overcast
11:54 PM 23.0 °F 12.4 °F 18.0 °F 81% 30.21 in 10.0 mi NNE 10.4 mph - N/A   Overcast